WILDBLUE-1

Last updated on Tue Sep 22 2026 00:03:11 GMT+0000 (Coordinated Universal Time)

1 29643U 06054A 26264.20679610 -.00000081 00000+0 00000+0 0 9998 2 29643 3.0443 79.2148 0004849 97.0502 272.7022 0.99178555 54751
UTC large
Height (km)
Speed (km/s)
/
Latitude / Longitude
Inclination (degrees)
Orbital Period (minutes)
Azimuth
Elevation
Range (km)
Doppler Factor

Next 0 passes for location: London (51.5072 / 0.1276)

No passes found over London.
WILDBLUE-1